Home   Weather   Coffs Harbour   Past weeks

Flag for Australia Past Weather in Coffs Harbour, New South Wales, Australia — Yesterday and Last 2 Weeks

Now
62 °F

Refreshingly cool.


Feels Like: 62 °F
Forecast: 58 / 72 °F
Wind: No wind

Location: Tamworth Airport AWS

Current Time: Sep 28, 2016 at 6:45:43 PM

Latest Report: Sep 28, 2016 at 6:00 PM


Visibility: N/A

Pressure: 29.82 "Hg

Humidity: 38%

Dew Point: 36 °F

Location of Coffs HarbourLocation

Past Weather in Coffs Harbour — Graph

°F

Coffs Harbour Temperature Yesterday

Maximum temperature yesterday: 67 °F (at 2:00 PM)
Minimum temperature yesterday: 38 °F (at 4:00 AM)
Average temperature yesterday: 54 °F

High & Low Weather Summary for the Past Weeks

 TemperatureHumidityPressure
High70 °F (Sep 24, 3:00 PM)92% (Sep 17, 7:00 AM)30.23 "Hg (Sep 17, 7:00 AM)
Low35 °F (Sep 28, 5:00 AM)32% (Sep 28, 1:00 PM)29.66 "Hg (Sep 18, 4:00 PM)
Average56 °F74%29.95 "Hg
* Reported Sep 13 5:00 PM — Sep 28 5:00 PM, Coffs Harbour, Weather by CustomWeather, © 2016

Note: Actual official high and low records may vary slightly from our data, if they occured in-between our weather recording intervals... More about our weather records

Advertising

Coffs Harbour Weather History for the Previous 24 Hours

Scroll right to see more
 ConditionsComfort  
Time TempWeatherWind HumidityBarometerVisibility
5:00 PM
Wed, Sep 28
67 °FMild.6 mph34%29.83 "HgN/A
4:00 PM68 °FMild.5 mph38%29.82 "HgN/A
3:00 PM68 °FMild.6 mph36%29.83 "HgN/A
2:00 PM67 °FMild.5 mph33%29.86 "HgN/A
1:00 PM65 °FMild.5 mph32%29.90 "HgN/A
12:00 PM63 °FMild.5 mph36%29.92 "HgN/A
11:00 AM61 °FRefreshingly cool.6 mph42%29.94 "HgN/A
10:00 AM59 °FRefreshingly cool.5 mph48%29.97 "HgN/A
9:00 AM56 °FRefreshingly cool.5 mph50%29.98 "HgN/A
8:00 AM50 °FCool.2 mph68%29.97 "HgN/A
7:00 AM44 °FQuite cool.6 mph81%29.96 "HgN/A
6:00 AM36 °FChilly.7 mph90%29.96 "HgN/A
5:00 AM35 °FChilly.3 mph87%29.94 "HgN/A
4:00 AM38 °FChilly.No wind86%29.93 "HgN/A
3:00 AM39 °FChilly.No wind86%29.93 "HgN/A
2:00 AM39 °FChilly.1 mph81%29.93 "HgN/A
1:00 AM44 °FQuite cool.2 mph83%29.95 "HgN/A
12:00 AM45 °FCool.6 mph73%29.95 "HgN/A
11:00 PM
Tue, Sep 27
47 °FCool.7 mph69%29.94 "HgN/A
10:00 PM51 °FCool.6 mph61%29.95 "HgN/A
9:00 PM52 °FCool.8 mph62%29.94 "HgN/A
8:00 PM53 °FCool.8 mph60%29.93 "HgN/A
7:00 PM58 °FRefreshingly cool.15 mph54%29.90 "HgN/A
6:00 PM62 °FPassing clouds.15 mph52%29.89 "HgN/A
Weather by CustomWeather, © 2016

See weather overviewHow to use our weather pages